Date String (YYYY-MM-DD hh:mm:ss) UTC,Instrument flags,absolute air pressure of the measurement (hPa),sample flow rate (lpm),inlet stack bypass flow (lpm),air temperature of the measurement (°C),ambient temperature measured by the external sensor (°C),aerosol sample conditioner tube jacket temperature (°C),OPC LED temperature (°C),internal box temperature (°C),relative humidity of the measurement (%),span deviation,mass concentration of particles derived from Lorenz-Mie calculation of OPC scattering (μg/m³),mass concentration of particles derived from Lorenz-Mie calculation of OPC scattering (μg/m³),mass concentration of particles derived from Lorenz-Mie calculation of OPC scattering (μg/m³)
DateTimeUTC,F1_M11,P_M11,Q1_M11,Q2_M11,T1_M11,T2_M11,T3_M11,T4_M11,T5_M11,U1_M11,ZSPAN_M11,X0_M11,X2_M11,X1_M11
2024-05-09 15:00:00,SystemResetWarning,0833.1,5.00,000.00,024.8,024.1,000.0,033.2,026.6,020.6,0000.0,0001.58,0000.74,0000.45
2024-05-09 15:01:00,SystemResetWarning,0833.1,4.99,000.00,024.8,024.1,000.0,033.2,026.6,020.6,0000.0,0001.56,0000.74,0000.45
2024-05-09 15:02:00,SystemResetWarning,0833.2,4.99,000.00,024.8,024.1,000.0,033.2,026.6,020.5,0000.0,0001.55,0000.71,0000.44
2024-05-09 15:03:00,SystemResetWarning,0833.1,5.00,000.00,024.8,024.1,000.0,033.2,026.6,020.8,0000.0,0001.46,0000.69,0000.44
2024-05-09 15:04:00,SystemResetWarning,0833.0,5.00,000.00,024.8,024.1,000.0,033.2,026.6,020.9,0000.0,0001.85,0000.70,0000.44
2024-05-09 15:05:00,SystemResetWarning,0833.2,5.00,000.00,024.8,024.2,000.0,033.2,026.6,020.9,0000.0,0002.90,0000.76,0000.45
2024-05-09 15:06:00,SystemResetWarning,0833.0,5.00,000.00,024.8,024.2,000.0,033.2,026.6,020.8,0000.0,0003.06,0000.78,0000.46
2024-05-09 15:07:00,SystemResetWarning,0833.2,5.00,000.00,024.8,024.2,000.0,033.2,026.6,020.8,0000.0,0003.22,0000.81,0000.48
2024-05-09 15:08:00,SystemResetWarning,0833.2,5.00,000.00,024.8,024.2,000.0,033.2,026.6,020.5,0000.0,0003.37,0000.84,0000.50
2024-05-09 15:09:00,SystemResetWarning,0833.0,5.00,000.00,024.8,024.2,000.0,033.2,026.6,020.4,0000.0,0003.33,0000.83,0000.51
2024-05-09 15:10:00,SystemResetWarning,0833.0,5.00,000.00,024.9,024.2,000.0,033.2,026.6,020.5,0000.0,0003.42,0000.88,0000.52
2024-05-09 15:11:00,SystemResetWarning,0833.0,5.00,000.00,024.9,024.2,000.0,033.2,026.6,020.5,0000.0,0003.41,0000.89,0000.53
2024-05-09 15:12:00,SystemResetWarning,0833.0,5.00,000.00,024.9,024.2,000.0,033.2,026.6,020.6,0000.0,0003.34,0000.88,0000.53
2024-05-09 15:13:00,SystemResetWarning,0833.0,4.99,000.00,024.9,024.2,000.0,033.2,026.6,020.6,0000.0,0003.58,0000.91,0000.53
2024-05-09 15:14:00,SystemResetWarning,0833.0,4.99,000.00,024.9,024.2,000.0,033.2,026.6,020.7,0000.0,0003.82,0000.93,0000.53
2024-05-09 15:15:00,SystemResetWarning,0833.1,5.00,000.00,024.9,024.2,000.0,033.2,026.6,020.9,0000.0,0003.62,0000.92,0000.54
2024-05-09 15:16:00,SystemResetWarning,0833.0,5.01,000.00,024.9,024.2,000.0,033.2,026.6,020.7,0000.0,0002.54,0000.90,0000.55
2024-05-09 15:17:00,SystemResetWarning,0833.0,4.99,000.00,024.9,024.2,000.0,033.2,026.6,020.5,0000.0,0002.24,0000.87,0000.55
2024-05-09 15:18:00,SystemResetWarning,0833.1,4.99,000.00,024.9,024.2,000.0,033.2,026.7,020.7,0000.0,0002.18,0000.87,0000.56
2024-05-09 15:19:00,SystemResetWarning,0833.1,5.00,000.00,024.9,024.2,000.0,033.2,026.7,021.0,0000.0,0002.33,0000.90,0000.56
2024-05-09 15:20:00,SystemResetWarning,0833.0,5.00,000.00,024.9,024.2,000.0,033.2,026.7,021.1,0000.0,0002.33,0000.89,0000.56
2024-05-09 15:21:00,SystemResetWarning,0833.0,5.00,000.00,024.9,024.2,000.0,033.2,026.7,021.0,0000.0,0002.27,0000.86,0000.57
2024-05-09 15:22:00,SystemResetWarning,0833.0,5.00,000.00,024.9,024.2,000.0,033.2,026.7,020.9,0000.0,0002.33,0000.88,0000.57
2024-05-09 15:23:00,SystemResetWarning,0833.2,5.00,000.00,024.9,024.2,000.0,033.2,026.7,021.1,0000.0,0002.42,0000.91,0000.58
2024-05-09 15:24:00,SystemResetWarning,0833.0,5.00,000.00,024.9,024.2,000.0,033.2,026.7,021.3,0000.0,0002.61,0000.94,0000.60
2024-05-09 15:25:00,SystemResetWarning,0833.2,5.00,000.00,024.9,024.2,000.0,033.2,026.7,021.5,0000.0,0002.39,0000.93,0000.61
2024-05-09 15:26:00,SystemResetWarning,0833.1,5.01,000.00,024.9,024.3,000.0,033.3,026.7,021.4,0000.0,0002.84,0000.99,0000.62
2024-05-09 15:27:00,SystemResetWarning,0833.4,5.00,000.00,024.9,024.3,000.0,033.3,026.7,021.4,0000.0,0004.76,0001.01,0000.63
2024-05-09 15:28:00,SystemResetWarning,0833.4,5.00,000.00,024.9,024.3,000.0,033.3,026.7,021.4,0000.0,0005.16,0001.04,0000.64
2024-05-09 15:29:00,SystemResetWarning,0833.2,4.99,000.00,024.9,024.3,000.0,033.3,026.7,021.3,0000.0,0005.96,0001.04,0000.66
2024-05-09 15:30:00,SystemResetWarning,0833.3,5.00,000.00,024.9,024.3,000.0,033.3,026.7,020.9,0000.0,0005.76,0001.02,0000.67
2024-05-09 15:31:00,SystemResetWarning,0833.2,4.99,000.00,024.9,024.3,000.0,033.3,026.7,020.9,0000.0,0007.13,0001.03,0000.69
2024-05-09 15:32:00,SystemResetWarning,0833.2,5.00,000.00,024.9,024.3,000.0,033.3,026.7,021.3,0000.0,0007.44,0001.06,0000.70
2024-05-09 15:33:00,SystemResetWarning,0833.1,5.00,000.00,025.0,024.3,000.0,033.3,026.7,021.3,0000.0,0007.78,0001.09,0000.71
2024-05-09 15:34:00,SystemResetWarning,0833.1,5.00,000.00,025.0,024.3,000.0,033.3,026.7,021.2,0000.0,0007.82,0001.07,0000.73
2024-05-09 15:35:00,SystemResetWarning,0833.0,5.00,000.00,025.0,024.3,000.0,033.3,026.7,021.2,0000.0,0007.59,0001.04,0000.74
2024-05-09 15:36:00,SystemResetWarning,0833.1,5.00,000.00,025.0,024.3,000.0,033.3,026.7,021.2,0000.0,0007.60,0001.08,0000.75
2024-05-09 15:37:00,SystemResetWarning,0833.0,5.00,000.00,025.0,024.3,000.0,033.3,026.7,021.1,0000.0,0007.46,0001.05,0000.76
2024-05-09 15:38:00,SystemResetWarning,0833.3,5.00,000.00,025.0,024.3,000.0,033.3,026.7,021.4,0000.0,0005.94,0001.05,0000.78
2024-05-09 15:39:00,SystemResetWarning,0833.0,5.00,000.00,025.0,024.3,000.0,033.3,026.8,021.6,0000.0,0005.27,0001.06,0000.79
2024-05-09 15:40:00,SystemResetWarning,0833.0,5.00,000.00,025.0,024.4,000.0,033.3,026.8,021.5,0000.0,0004.42,0001.08,0000.80
2024-05-09 15:41:00,SystemResetWarning,0833.2,5.00,000.00,025.0,024.4,000.0,033.3,026.8,021.0,0000.0,0004.23,0001.09,0000.82
2024-05-09 15:42:00,SystemResetWarning,0833.1,5.00,000.00,025.0,024.4,000.0,033.3,026.8,020.7,0000.0,0003.92,0001.16,0000.83
2024-05-09 15:43:00,SystemResetWarning,0833.1,5.01,000.00,025.0,024.4,000.0,033.3,026.7,020.5,0000.0,0003.43,0001.24,0000.87
2024-05-09 15:44:00,SystemResetWarning,0833.0,5.00,000.00,025.0,024.4,000.0,033.3,026.8,021.1,0000.0,0003.13,0001.26,0000.89
2024-05-09 15:45:00,SystemResetWarning,0833.2,5.00,000.00,025.0,024.4,000.0,033.3,026.8,021.5,0000.0,0003.55,0001.29,0000.91
2024-05-09 15:46:00,SystemResetWarning,0833.0,5.00,000.00,025.0,024.4,000.0,033.3,026.8,021.6,0000.0,0004.32,0001.33,0000.93
2024-05-09 15:47:00,SystemResetWarning,0833.2,5.00,000.00,025.1,024.4,000.0,033.3,026.8,021.0,0000.0,0004.47,0001.39,0000.95
2024-05-09 15:48:00,SystemResetWarning,0833.1,5.00,000.00,025.1,024.4,000.0,033.3,026.8,020.6,0000.0,0004.63,0001.43,0000.97
2024-05-09 15:49:00,SystemResetWarning,0833.1,5.00,000.00,025.1,024.4,000.0,033.3,026.8,020.5,0000.0,0004.64,0001.44,0000.99
2024-05-09 15:50:00,SystemResetWarning,0833.1,5.00,000.00,025.1,024.4,000.0,033.3,026.8,020.4,0000.0,0005.39,0001.48,0001.02
2024-05-09 15:51:00,SystemResetWarning,0833.1,5.01,000.00,025.1,024.5,000.0,033.4,026.8,020.6,0000.0,0006.25,0001.50,0001.05
2024-05-09 15:52:00,SystemResetWarning,0833.1,5.01,000.00,025.1,024.5,000.0,033.4,026.8,020.3,0000.0,0006.35,0001.56,0001.08
2024-05-09 15:53:00,SystemResetWarning,0833.2,5.00,000.00,025.1,024.5,000.0,033.4,026.9,020.3,0000.0,0006.06,0001.57,0001.11
2024-05-09 15:54:00,SystemResetWarning,0833.1,5.00,000.00,025.1,024.5,000.0,033.4,026.9,020.0,0000.0,0005.65,0001.54,0001.13
2024-05-09 15:55:00,SystemResetWarning,0833.1,5.00,000.00,025.1,024.5,000.0,033.4,026.9,019.8,0000.0,0006.27,0001.54,0001.14
2024-05-09 15:56:00,SystemResetWarning,0833.1,4.99,000.00,025.1,024.5,000.0,033.4,026.9,019.5,0000.0,0006.54,0001.61,0001.18
2024-05-09 15:57:00,SystemResetWarning,0833.1,4.99,000.00,025.1,024.5,000.0,033.4,027.0,019.2,0000.0,0006.21,0001.67,0001.22
2024-05-09 15:58:00,SystemResetWarning,0833.1,5.01,000.00,025.1,024.5,000.0,033.5,026.9,019.8,0000.0,0007.22,0001.67,0001.26
2024-05-09 15:59:00,SystemResetWarning,0833.0,5.01,000.00,025.1,024.5,000.0,033.5,026.9,020.2,0000.0,0007.35,0001.70,0001.29
